[[{"header":{"parameterUnit":"m.s-1","parameterCategory":1,"la1":30.2991,"la2":30.254,"lo1":-89.0895,"lo2":-89.0444,"dy":0.0017,"dx":0.0017,"nx":28,"ny":28,"refTime":"2025-11-04T03:00:00:Z","depth":0,"parameterNumber":2,"parameterNumberName":"U-component_of_WINDS"},"data":[0,0,0,0,0,0,0,0,0,0,0,0,0,0,0,0,0,0,0,0,0,0,0,0,0,0,0,0,0,0,0,0,0,0,0,0,0,0,0,0,0,0,0,0,0,0,0,0,0,0,0,0,0,0,0,0,0,0,-1.1903,-1.1904,0,-1.1937,-1.1937,-1.1938,-1.1864,-1.1862,-1.186,-1.1857,-1.1894,-1.1897,-1.19,0,0,0,0,0,0,0,0,0,0,0,0,0,-1.1776,-1.1779,-1.1903,-1.1904,-1.1904,-1.1937,-1.1937,-1.1938,-1.1865,-1.1862,-1.1859,-1.1856,-1.1893,-1.1897,-1.19,0,0,0,0,0,0,0,0,0,0,0,0,0,-1.1823,-1.178,-1.1903,-1.1872,-1.1869,-1.1937,-1.1937,-1.1938,-1.1865,-1.1862,-1.1858,-1.1855,-1.1892,-1.1896,-1.1901,-1.2002,0,0,-1.1915,-1.1918,0,0,0,0,0,0,0,0,-1.182,-1.1828,-1.1876,-1.1874,-1.1871,-1.1893,-1.1906,-1.1959,-1.1866,-1.1867,-1.1857,-1.1853,-1.1897,-1.1901,-1.1915,-1.2003,-1.2005,-1.1916,-1.1919,-1.1921,-1.1922,0,0,0,0,0,0,0,-1.1817,-1.1826,-1.1917,-1.1877,-1.1874,-1.1856,-1.1859,-1.1916,-1.1901,-1.1867,-1.1861,-1.1866,-1.1895,-1.191,-1.1915,-1.2005,-1.1916,-1.192,-1.1923,-1.1925,-1.2178,-1.2182,0,0,0,0,0,0,-1.1818,-1.1824,-1.1916,-1.1918,-1.1836,-1.1861,-1.1864,-1.189,-1.19,-1.1899,-1.1869,-1.1863,-1.1904,-1.191,-1.1916,-1.2035,-1.1921,-1.1925,-1.1928,-1.2174,-1.2179,-1.2183,0,0,0,0,0,0,-1.1815,-1.1827,-1.1914,-1.1869,-1.1879,-1.1867,-1.1896,-1.1892,-1.1908,-1.1902,-1.19,-1.1888,-1.1901,-1.1909,-1.1981,-1.2036,-1.1927,-1.1932,-1.217,-1.2176,-1.2181,-1.2275,0,0,0,0,0,0,-1.1812,-1.1826,-1.1864,-1.1871,-1.1882,-1.1979,-1.1899,-1.1895,-1.1916,-1.1908,-1.1919,-1.1918,-1.1899,-1.1974,-1.1986,-1.204,-1.1936,-1.2165,-1.2172,-1.2179,-1.2267,-1.2283,-1.2297,0,0,0,0,0,-1.1808,-1.189,-1.1867,-1.1878,-1.1929,-1.1982,-1.1988,-1.1965,-1.1921,-1.1959,-1.1955,-1.1918,-1.2027,-1.1982,-1.1994,-1.2051,-1.2161,-1.217,-1.2179,-1.226,-1.228,-1.2296,0,0,0,0,0,0,-1.1891,-1.189,-1.1865,-1.1951,-1.1967,-1.1969,-1.2017,-1.1986,-1.2015,-1.2007,-1.1976,-1.198,-1.2057,-1.2061,-1.201,-1.2149,-1.2087,-1.2098,-1.2144,-1.2163,-1.2178,-1.2176,-1.1939,0,0,0,0,0,-1.192,-1.1962,-1.1959,-1.2035,-1.2045,-1.203,-1.2052,-1.2032,-1.2047,-1.2054,-1.2056,-1.2073,-1.2111,-1.2137,-1.2171,-1.2266,-1.2268,-1.2311,-1.2326,-1.2338,-1.2349,-1.24,-1.2419,-1.2212,-1.2211,-1.2211,0,0,-1.1979,-1.1984,-1.2013,-1.2052,-1.2062,-1.2108,-1.2036,-1.2087,-1.212,-1.2062,-1.213,-1.2131,-1.2148,-1.2231,-1.2268,-1.2237,-1.2407,-1.2349,-1.2359,-1.2364,-1.2411,-1.2431,-1.2448,-1.2217,-1.2216,-1.2215,0,0,-1.2111,-1.2118,-1.2183,-1.2194,-1.221,-1.2199,-1.2215,-1.2221,-1.222,-1.2287,-1.2244,-1.2283,-1.2349,-1.2363,-1.2379,-1.2514,-1.2481,-1.2526,-1.2606,-1.2656,-1.2672,-1.2687,-1.2736,-1.2754,-1.2537,-1.2537,-1.2537,0,-1.2183,-1.2249,-1.222,-1.2274,-1.2293,-1.2241,-1.2307,-1.2319,-1.2346,-1.236,-1.2324,-1.2406,-1.2414,-1.25,-1.2533,-1.2547,-1.2564,-1.2526,-1.2672,-1.2686,-1.2699,-1.2746,-1.2765,-1.2543,-1.2542,-1.2541,-1.2541,0,-1.2338,-1.2384,-1.2435,-1.2461,-1.2485,-1.2545,-1.2525,-1.2553,-1.2531,-1.2524,-1.2593,-1.2599,-1.2635,-1.2653,-1.2632,-1.2736,-1.2717,-1.2677,-1.2614,-1.2725,-1.2769,-1.2786,-1.2551,-1.2549,-1.2547,-1.2546,0,0,-1.2526,-1.2534,-1.2554,-1.2565,-1.2577,-1.2613,-1.267,-1.2704,-1.2729,-1.2748,-1.2796,-1.2852,-1.2815,-1.2833,-1.2812,-1.2856,-1.2964,-1.281,-1.281,-1.284,-1.308,-1.3112,-1.3133,-1.294,-1.2943,-1.2946,-1.3079,0,-1.2658,-1.2755,-1.273,-1.2828,-1.287,-1.282,-1.287,-1.2883,-1.2878,-1.2913,-1.2907,-1.2948,-1.2895,-1.2906,-1.2946,-1.2942,-1.3012,-1.2932,-1.2986,-1.2988,-1.2985,-1.3155,-1.3189,-1.3314,-1.3096,-1.3099,-1.3101,0,-1.2825,-1.285,-1.2952,-1.2957,-1.2974,-1.3019,-1.3048,-1.3082,-1.3096,-1.3089,-1.3108,-1.3079,-1.3135,-1.307,-1.3147,-1.3093,-1.3113,-1.3114,-1.3119,-1.3125,-1.3053,-1.3168,-1.3354,-1.3373,-1.3127,-1.3125,-1.3123,0,-1.2954,-1.3013,-1.3082,-1.3093,-1.31,-1.3133,-1.3138,-1.3148,-1.317,-1.3194,-1.3208,-1.3239,-1.3257,-1.3282,-1.3262,-1.3216,-1.3343,-1.3276,-1.334,-1.334,-1.3371,-1.337,-1.3565,-1.338,-1.338,-1.338,-1.3379,0,-1.3105,-1.317,-1.314,-1.3182,-1.3253,-1.3223,-1.3294,-1.3293,-1.3302,-1.3343,-1.3301,-1.3341,-1.3311,-1.3348,-1.3332,-1.3399,-1.3407,-1.3404,-1.3399,-1.3409,-1.341,-1.3423,-1.3415,-1.3385,-1.3384,-1.3383,-1.3382,0,-1.3262,-1.3245,-1.3316,-1.3317,-1.3318,-1.3371,-1.3371,-1.3411,-1.3401,-1.3454,-1.3465,-1.345,-1.3492,-1.3473,-1.3517,-1.3506,-1.3593,-1.3576,-1.3589,-1.3585,-1.365,-1.3645,-1.3863,-1.389,-1.3687,-1.3689,-1.369,0,-1.3361,-1.3409,-1.3415,-1.3439,-1.3447,-1.3487,-1.3508,-1.348,-1.3504,-1.3523,-1.356,-1.3598,-1.3627,-1.3695,-1.3689,-1.3722,-1.3707,-1.378,-1.3712,-1.372,-1.371,-1.3708,-1.3713,-1.3795,-1.3798,-1.38,-1.3801,0,-1.3539,-1.3527,-1.356,-1.359,-1.3616,-1.3639,-1.3657,-1.368,-1.3652,-1.3681,-1.3723,-1.3745,-1.3789,-1.3828,-1.3856,-1.3861,-1.3828,-1.3822,-1.3839,-1.3851,-1.3857,-1.3856,-1.3629,-1.3818,-1.3817,-1.3815,-1.3814,-1.3814,-1.3671,-1.3711,-1.3722,-1.3759,-1.377,-1.3788,-1.3825,-1.3819,-1.3854,-1.3887,-1.3868,-1.3917,-1.3928,-1.3963,-1.3973,-1.4011,-1.3982,-1.4006,-1.4012,-1.4019,-1.4028,-1.3849,-1.4015,-1.4015,-1.4014,-1.4014,-1.4014,0,-1.3847,-1.3851,-1.3886,-1.3913,-1.3943,-1.3906,-1.3924,-1.3952,-1.3995,-1.4009,-1.4037,-1.4085,-1.4122,-1.4117,-1.4151,-1.4182,-1.4168,-1.4192,-1.4191,-1.4193,-1.4052,-1.4035,-1.4203,-1.4203,-1.4203,-1.4203,-1.4203,-1.4203,-1.3943,-1.4011,-1.4,-1.4072,-1.4075,-1.4122,-1.4136,-1.4152,-1.4163,-1.4218,-1.4248,-1.4244,-1.4251,-1.4284,-1.4316,-1.4313,-1.4329,-1.436,-1.4352,-1.4221,-1.4202,-1.4185,-1.4168,-1.4363,-1.4363,-1.449,-1.4491,-1.4492]},{"header":{"parameterUnit":"m.s-1","parameterCategory":1,"la1":30.2991,"la2":30.254,"lo1":-89.0895,"lo2":-89.0444,"dy":0.0017,"dx":0.0017,"nx":28,"ny":28,"refTime":"2025-11-04T03:00:00:Z","depth":0,"parameterNumber":3,"parameterNumberName":"V-component_of_WINDS"},"data":[0,0,0,0,0,0,0,0,0,0,0,0,0,0,0,0,0,0,0,0,0,0,0,0,0,0,0,0,0,0,0,0,0,0,0,0,0,0,0,0,0,0,0,0,0,0,0,0,0,0,0,0,0,0,0,0,0,0,-4.1643,-4.1644,0,-4.1747,-4.1748,-4.1749,-4.1694,-4.1691,-4.1688,-4.1686,-4.1788,-4.1794,-4.1799,0,0,0,0,0,0,0,0,0,0,0,0,0,-4.1392,-4.1397,-4.1642,-4.1644,-4.1645,-4.1747,-4.1748,-4.1749,-4.1694,-4.1691,-4.1688,-4.1684,-4.1787,-4.1793,-4.1799,0,0,0,0,0,0,0,0,0,0,0,0,0,-4.1499,-4.1398,-4.1642,-4.163,-4.163,-4.1746,-4.1748,-4.175,-4.1695,-4.1691,-4.1687,-4.1683,-4.1785,-4.1792,-4.18,-4.1933,0,0,-4.1825,-4.1828,0,0,0,0,0,0,0,0,-4.1493,-4.1508,-4.163,-4.1631,-4.1631,-4.1703,-4.1697,-4.1811,-4.1696,-4.167,-4.1686,-4.1681,-4.1763,-4.1773,-4.1801,-4.1938,-4.1942,-4.1825,-4.183,-4.1834,-4.1836,0,0,0,0,0,0,0,-4.1485,-4.1503,-4.1683,-4.1632,-4.1633,-4.1618,-4.1628,-4.1718,-4.1739,-4.1672,-4.1668,-4.1682,-4.1762,-4.1794,-4.1803,-4.1944,-4.1825,-4.1832,-4.1837,-4.184,-4.2194,-4.2199,0,0,0,0,0,0,-4.1479,-4.1497,-4.168,-4.1687,-4.155,-4.1626,-4.1638,-4.1684,-4.1738,-4.1742,-4.1685,-4.1679,-4.1782,-4.1794,-4.1807,-4.1966,-4.1834,-4.1841,-4.1846,-4.219,-4.2195,-4.22,0,0,0,0,0,0,-4.1474,-4.1496,-4.1676,-4.1591,-4.1613,-4.1635,-4.1687,-4.1688,-4.172,-4.1748,-4.175,-4.1714,-4.1779,-4.1795,-4.1902,-4.1968,-4.1845,-4.1852,-4.2184,-4.2191,-4.2198,-4.2285,0,0,0,0,0,0,-4.1467,-4.1494,-4.1546,-4.1593,-4.1618,-4.1772,-4.1691,-4.1694,-4.1734,-4.1727,-4.1775,-4.1779,-4.1777,-4.1891,-4.191,-4.1977,-4.1858,-4.2178,-4.2187,-4.2196,-4.2276,-4.2294,-4.2309,0,0,0,0,0,-4.1458,-4.1566,-4.1549,-4.1572,-4.1683,-4.1776,-4.179,-4.1787,-4.174,-4.1791,-4.1809,-4.1777,-4.1958,-4.1902,-4.1924,-4.1994,-4.2174,-4.2185,-4.2195,-4.2269,-4.2291,-4.2309,0,0,0,0,0,0,-4.1526,-4.1572,-4.1554,-4.168,-4.1725,-4.1766,-4.1831,-4.181,-4.1867,-4.1858,-4.185,-4.1862,-4.1973,-4.1994,-4.1931,-4.2125,-4.2059,-4.2074,-4.2108,-4.2128,-4.2144,-4.2137,-4.1865,0,0,0,0,0,-4.1555,-4.1628,-4.1664,-4.1772,-4.1795,-4.181,-4.185,-4.1844,-4.1889,-4.1907,-4.1932,-4.1976,-4.2042,-4.2086,-4.2149,-4.2279,-4.2288,-4.2338,-4.2354,-4.2368,-4.2381,-4.245,-4.2473,-4.2234,-4.2234,-4.2234,0,0,-4.1617,-4.1651,-4.1697,-4.1786,-4.182,-4.1894,-4.1826,-4.1907,-4.1961,-4.1918,-4.2021,-4.2042,-4.209,-4.2209,-4.2263,-4.223,-4.2449,-4.2381,-4.2391,-4.2397,-4.2463,-4.2486,-4.2506,-4.2241,-4.224,-4.2239,0,0,-4.1767,-4.1801,-4.1895,-4.193,-4.1982,-4.1991,-4.2014,-4.2059,-4.2071,-4.2175,-4.2144,-4.2208,-4.2323,-4.2358,-4.2391,-4.2555,-4.2528,-4.2576,-4.2661,-4.2729,-4.2748,-4.2765,-4.2823,-4.2844,-4.2589,-4.2589,-4.2589,0,-4.1837,-4.1949,-4.1945,-4.2029,-4.2068,-4.2034,-4.2128,-4.2162,-4.2232,-4.2259,-4.2222,-4.2365,-4.2395,-4.2522,-4.2562,-4.259,-4.2615,-4.257,-4.2746,-4.2763,-4.2778,-4.2833,-4.2855,-4.2594,-4.2594,-4.2593,-4.2593,0,-4.2032,-4.211,-4.2179,-4.2249,-4.2296,-4.2384,-4.2392,-4.244,-4.243,-4.2442,-4.2547,-4.2582,-4.2651,-4.2681,-4.2671,-4.2806,-4.2784,-4.2747,-4.268,-4.2806,-4.2858,-4.2879,-4.2602,-4.26,-4.2598,-4.2597,0,0,-4.2228,-4.2295,-4.232,-4.2351,-4.2406,-4.2465,-4.2551,-4.262,-4.2661,-4.271,-4.2782,-4.288,-4.2846,-4.2883,-4.2877,-4.2937,-4.3064,-4.2892,-4.2893,-4.2922,-4.3214,-4.3242,-4.3266,-4.3046,-4.305,-4.3053,-4.321,0,-4.2382,-4.2535,-4.2533,-4.2674,-4.2745,-4.2714,-4.2789,-4.283,-4.2844,-4.2905,-4.2919,-4.2989,-4.2939,-4.2961,-4.3019,-4.3036,-4.3122,-4.3025,-4.3111,-4.3114,-4.3101,-4.3294,-4.3323,-4.3469,-4.323,-4.3233,-4.3236,0,-4.2582,-4.2639,-4.2788,-4.2832,-4.2862,-4.293,-4.2992,-4.3052,-4.3097,-4.3103,-4.3145,-4.313,-4.3216,-4.3147,-4.3265,-4.3198,-4.3233,-4.3247,-4.3253,-4.3261,-4.3183,-4.3306,-4.3516,-4.3538,-4.3268,-4.3265,-4.3263,0,-4.271,-4.2824,-4.2927,-4.2955,-4.3009,-4.3057,-4.3082,-4.3123,-4.3165,-4.3219,-4.3246,-4.3309,-4.3344,-4.3392,-4.3393,-4.3343,-4.3513,-4.3443,-4.3519,-4.3519,-4.3556,-4.3554,-4.3774,-4.3579,-4.3579,-4.3578,-4.3578,0,-4.2883,-4.2974,-4.2985,-4.3049,-4.3151,-4.3147,-4.3247,-4.3267,-4.3304,-4.337,-4.3346,-4.3408,-4.3406,-4.3469,-4.347,-4.3567,-4.3583,-4.3589,-4.3588,-4.3591,-4.3591,-4.3614,-4.3604,-4.3584,-4.3583,-4.3581,-4.358,0,-4.3043,-4.3054,-4.3164,-4.3207,-4.322,-4.3293,-4.3329,-4.3388,-4.34,-4.3484,-4.3503,-4.3521,-4.3593,-4.3599,-4.3682,-4.3683,-4.3801,-4.3789,-4.3786,-4.3784,-4.3859,-4.3852,-4.4103,-4.4135,-4.3919,-4.3921,-4.3923,0,-4.3152,-4.3222,-4.3273,-4.3316,-4.3343,-4.3413,-4.3455,-4.3454,-4.3499,-4.3556,-4.3609,-4.3679,-4.3735,-4.3852,-4.3872,-4.3935,-4.3924,-4.4008,-4.3934,-4.3935,-4.3926,-4.3921,-4.3928,-4.4022,-4.4025,-4.4027,-4.4028,0,-4.3344,-4.3346,-4.3409,-4.3475,-4.3526,-4.3577,-4.3624,-4.366,-4.3665,-4.3716,-4.3791,-4.3835,-4.392,-4.399,-4.4053,-4.4076,-4.4053,-4.4051,-4.4072,-4.4076,-4.4072,-4.4075,-4.3826,-4.4046,-4.4044,-4.4043,-4.4042,-4.4041,-4.3482,-4.3543,-4.3588,-4.3659,-4.3695,-4.374,-4.3798,-4.3817,-4.388,-4.3951,-4.3945,-4.4028,-4.407,-4.4152,-4.418,-4.4243,-4.4215,-4.4245,-4.4253,-4.4261,-4.4268,-4.4062,-4.4255,-4.4254,-4.4254,-4.4253,-4.4253,0,-4.3673,-4.3701,-4.3766,-4.3834,-4.3889,-4.3864,-4.3915,-4.3962,-4.4036,-4.4078,-4.4134,-4.4219,-4.4287,-4.4312,-4.4377,-4.4423,-4.4414,-4.444,-4.4437,-4.4442,-4.429,-4.4265,-4.4446,-4.4446,-4.4446,-4.4446,-4.4446,-4.4446,-4.3779,-4.3881,-4.3888,-4.4007,-4.4033,-4.4115,-4.4146,-4.4187,-4.4221,-4.4318,-4.4374,-4.439,-4.4425,-4.4493,-4.4554,-4.4559,-4.4584,-4.4615,-4.4616,-4.4473,-4.4453,-4.4435,-4.4412,-4.462,-4.4621,-4.4763,-4.4764,-4.4765]}]]